Weather in Byshkin

Ukraine / Sumi District     50°37′38″N   34°37′05″E
temp.,
°C
wind,
m/s
gust,
m/s
humid.,
%
clouds,
%
prec.,
mm/h
press.,
hPa
HPBL,
m
9 may, sun
sun900:00+4nw81390100 0.0 1013837
03:00+4nw7128992 0.1 1014712
06:00+2wnw613905 0.0 1016523
09:00+6nw812695 0.0 10181149
12:00+10nw91153100 0.1 10182136
15:00+10nw7105679 0.1 10211887
18:00+10nnw611605 0.0 10221844
21:00+5nnw35763 0.0 102471
10 may, mon
mon1000:00+4nw46781 0.0 1026104
03:00+3nw49781 0.0 1026155
06:00+3nnw49791 0.0 1027177
09:00+9n57610 0.0 1027498
12:00+12n68475 0.0 10261894
15:00+13n79475 0.0 10252024
18:00+12n610605 0.0 10241583
21:00+8n513707 0.0 1024418
11 may, tue
tue1100:00+9n71462100 0.0 1022629
03:00+9n81568100 0.0 1020626
06:00+9nne7158099 0.0 1019520
09:00+11nne7137968 0.0 1019638
12:00+16ne81373100 0.0 10181287
15:00+14ene7117475 0.3 10191520
18:00+13e6106830 0.1 10201486
21:00+9ene714755 0.1 1019857
12 may, wed
wed1200:00+8ene81378100 0.0 10191049
03:00+7e71486100 0.1 10191223
06:00+8e91485100 0.1 10181187
09:00+7e5992100 0.6 1017959
12:00+7e71092100 1.3 1017952
15:00+11ese7107894 2.0 10151374
18:00+9ese599576 5.3 1014598
21:00+8se4119423 6.9 1014238
13 may, thu
thu1300:00+8se499843 0.4 1015260
03:00+7sse349771 0.4 101676
06:00+7se379834 0.0 1016187
09:00+11ese4992100 0.0 1016385
12:00+18se796768 0.0 10151460
15:00+20se7963100 0.1 10141803
18:00+18ese61173100 0.1 1013676
21:00+15ese5158192 0.1 1012395